Temp
-7 -7 -7 -7 -7 -7 -7 -7 -7 -8 -9 -9 -10 -10 -10 -10 -10 -10 -10 -11 -11 -11 -11 -12 -11 -11 -12 -12 -12 -13 -13 -14 -14 -15 -15 -15 -15 -15 -16 -16 -16 -16 -16 -17
-8 -8 -8 -8 -8 -8 -8 -8 -8 -8 -9 -10 -10 -10 -10 -10 -10 -11 -11 -11 -11 -11 -11 -11 -12 -12 -12 -13 -13 -13 -14 -14 -15 -15 -15 -16 -16 -16 -17 -18 -18 -18 -17 -17
-8 -8 -8 -8 -8 -9 -9 -9 -8 -9 -9 -10 -10 -10 -10 -10 -10 -11 -11 -11 -11 -11 -11 -12 -12 -13 -13 -13 -14 -14 -14 -14 -14 -15 -17 -18 -19 -19 -18 -18 -18 -18 -19 -19
-8 -8 -9 -9 -9 -9 -9 -9 -9 -9 -10 -10 -10 -9 -11 -10 -11 -11 -12 -11 -12 -12 -12 -13 -13 -14 -14 -14 -15 -15 -15 -16 -16 -17 -18 -18 -18 -18 -18 -19 -20 -21 -21 -21
-9 -9 -9 -9 -9 -9 -10 -10 -10 -10 -10 -10 -11 -10 -10 -11 -11 -12 -12 -12 -12 -12 -12 -13 -14 -14 -14 -14 -15 -15 -16 -17 -17 -18 -19 -19 -18 -20 -21 -23 -24 -24 -24 -24
-9 -9 -9 -9 -9 -10 -10 -10 -11 -11 -11 -11 -11 -11 -10 -11 -11 -12 -12 -12 -12 -13 -13 -14 -14 -14 -15 -16 -16 -17 -17 -18 -19 -19 -19 -19 -21 -23 -24 -25 -26 -25 -25 -25
-9 -9 -10 -10 -10 -10 -10 -11 -11 -11 -11 -12 -12 -12 -12 -12 -12 -12 -12 -12 -13 -13 -13 -14 -14 -15 -16 -16 -17 -17 -17 -18 -18 -19 -20 -22 -24 -26 -26 -26 -26 -25 -25 -25
-9 -10 -10 -10 -10 -10 -11 -11 -11 -11 -11 -11 -12 -11 -12 -12 -12 -12 -12 -12 -13 -13 -14 -14 -15 -16 -17 -17 -17 -17 -17 -18 -18 -20 -24 -25 -26 -26 -26 -26 -25 -25 -25 -25
-10 -10 -10 -10 -11 -11 -11 -11 -12 -12 -12 -12 -11 -12 -12 -13 -13 -12 -12 -13 -13 -14 -15 -16 -17 -17 -17 -17 -17 -18 -18 -18 -20 -24 -26 -26 -26 -26 -26 -26 -25 -25 -25 -25
-10 -10 -10 -11 -11 -11 -12 -12 -12 -12 -12 -12 -12 -12 -12 -12 -12 -13 -13 -14 -15 -15 -16 -16 -17 -17 -17 -18 -18 -18 -18 -20 -23 -25 -26 -26 -26 -26 -26 -26 -26 -26 -25 -26
-11 -11 -11 -11 -12 -12 -12 -12 -12 -12 -13 -13 -12 -12 -13 -13 -13 -14 -14 -15 -15 -15 -16 -17 -17 -17 -18 -19 -19 -19 -20 -23 -25 -25 -25 -26 -26 -26 -26 -26 -25 -25 -26 -26
-11 -11 -11 -12 -12 -12 -12 -13 -13 -13 -13 -13 -13 -13 -13 -13 -14 -14 -14 -15 -15 -16 -17 -17 -18 -18 -19 -19 -19 -19 -21 -24 -25 -25 -25 -26 -26 -26 -25 -25 -26 -25 -25 -25
-12 -12 -11 -12 -12 -12 -12 -13 -13 -13 -13 -13 -14 -14 -14 -14 -14 -14 -15 -15 -16 -17 -18 -18 -19 -19 -19 -19 -20 -20 -22 -25 -25 -25 -25 -25 -25 -25 -25 -25 -25 -25 -25 -25
-12 -12 -12 -12 -12 -12 -13 -13 -13 -13 -14 -14 -14 -14 -14 -14 -15 -15 -16 -17 -17 -18 -18 -18 -19 -19 -19 -20 -20 -21 -23 -25 -25 -25 -25 -25 -24 -24 -24 -24 -24 -24 -25 -25
-12 -12 -12 -12 -12 -13 -13 -14 -13 -14 -14 -14 -14 -14 -15 -15 -15 -16 -16 -17 -17 -18 -18 -19 -19 -19 -20 -20 -21 -21 -22 -24 -24 -24 -24 -24 -24 -24 -24 -24 -24 -24 -24 -25
-12 -12 -12 -12 -13 -13 -13 -14 -14 -14 -15 -14 -15 -15 -15 -15 -16 -16 -17 -17 -17 -18 -19 -19 -19 -20 -20 -21 -21 -21 -21 -22 -22 -23 -23 -24 -24 -23 -24 -24 -24 -24 -24 -24
-13 -13 -13 -13 -13 -13 -13 -14 -14 -15 -15 -15 -15 -15 -16 -16 -16 -17 -17 -18 -18 -18 -19 -19 -19 -20 -20 -21 -21 -21 -21 -22 -22 -22 -23 -23 -23 -24 -24 -24 -24 -24 -24 -24
-13 -13 -13 -13 -13 -13 -13 -14 -15 -15 -15 -15 -16 -16 -16 -17 -17 -18 -18 -18 -18 -19 -19 -19 -20 -20 -20 -21 -21 -21 -21 -21 -22 -23 -23 -23 -24 -24 -24 -24 -24 -24 -24 -24
-14 -14 -13 -13 -13 -13 -14 -15 -15 -15 -15 -15 -16 -16 -16 -17 -17 -18 -18 -18 -19 -19 -19 -20 -20 -20 -21 -21 -21 -21 -21 -21 -22 -22 -22 -23 -24 -24 -24 -24 -24 -24 -24 -24
-14 -14 -14 -14 -14 -13 -14 -15 -15 -15 -15 -16 -16 -16 -17 -17 -18 -18 -18 -18 -19 -19 -19 -20 -20 -21 -21 -21 -21 -21 -21 -22 -22 -23 -23 -23 -24 -24 -24 -24 -24 -24 -24 -24
-14 -15 -15 -15 -15 -14 -16 -15 -15 -15 -15 -15 -16 -17 -17 -18 -18 -18 -19 -19 -19 -19 -20 -20 -21 -21 -21 -21 -21 -21 -21 -22 -22 -23 -23 -23 -24 -24 -24 -24 -24 -24 -24 -24
-15 -15 -15 -15 -15 -15 -16 -16 -16 -16 -16 -16 -17 -18 -18 -18 -18 -18 -19 -19 -20 -20 -20 -21 -21 -21 -21 -21 -22 -21 -21 -22 -22 -23 -23 -23 -23 -24 -24 -24 -24 -24 -24 -24
-15 -15 -16 -16 -16 -17 -16 -16 -16 -17 -17 -18 -18 -18 -19 -19 -19 -19 -19 -19 -20 -20 -20 -21 -21 -21 -21 -22 -22 -22 -22 -22 -22 -23 -23 -23 -23 -24 -24 -24 -24 -25 -25 -25
-15 -16 -16 -16 -17 -16 -16 -17 -17 -18 -18 -18 -18 -18 -19 -19 -19 -19 -20 -20 -20 -20 -21 -21 -21 -22 -22 -22 -22 -22 -22 -23 -23 -23 -23 -24 -24 -24 -24 -25 -25 -25 -26 -26
-16 -17 -17 -16 -17 -16 -17 -18 -18 -18 -18 -18 -18 -19 -19 -19 -20 -20 -20 -20 -20 -21 -21 -21 -22 -22 -22 -22 -22 -23 -23 -23 -23 -23 -24 -24 -24 -24 -25 -25 -26 -26 -26 -26
-17 -18 -17 -16 -17 -17 -17 -18 -18 -18 -18 -19 -19 -19 -19 -20 -20 -20 -20 -21 -21 -21 -21 -21 -22 -22 -23 -23 -23 -24 -23 -24 -24 -24 -24 -24 -24 -25 -25 -25 -26 -26 -26 -27
Height
5886 5884 5883 5881 5879 5876 5873 5869 5866 5864 5861 5859 5857 5856 5854 5852 5851 5849 5846 5843 5840 5836 5830 5823 5816 5809 5802 5794 5784 5775 5767 5759 5750 5740 5731 5721 5711 5701 5691 5682 5672 5664 5656 5650
5881 5879 5877 5875 5873 5871 5869 5865 5862 5860 5857 5855 5853 5851 5849 5848 5846 5844 5840 5837 5833 5827 5821 5814 5806 5799 5791 5782 5773 5763 5753 5742 5731 5719 5708 5697 5687 5677 5666 5658 5648 5640 5633 5621
5877 5875 5872 5870 5868 5866 5864 5861 5857 5856 5854 5852 5849 5847 5845 5844 5842 5839 5834 5831 5826 5820 5813 5805 5796 5788 5778 5769 5760 5750 5738 5724 5712 5700 5687 5676 5664 5653 5643 5632 5622 5613 5604 5595
5872 5869 5867 5865 5863 5861 5859 5855 5853 5851 5849 5849 5847 5843 5842 5841 5838 5833 5828 5823 5817 5810 5801 5793 5786 5777 5767 5757 5744 5732 5720 5707 5695 5681 5667 5653 5641 5630 5616 5605 5593 5583 5576 5569
5867 5864 5862 5859 5858 5856 5854 5851 5848 5846 5845 5844 5843 5839 5837 5836 5832 5826 5821 5814 5808 5800 5792 5784 5774 5764 5754 5742 5728 5716 5703 5688 5675 5661 5648 5633 5618 5601 5589 5580 5572 5565 5559 5554
5861 5859 5857 5855 5853 5851 5848 5847 5845 5842 5840 5839 5837 5834 5834 5830 5825 5819 5813 5807 5800 5792 5783 5773 5763 5752 5741 5729 5716 5704 5690 5675 5660 5643 5626 5610 5596 5583 5573 5565 5560 5555 5550 5542
5855 5854 5852 5850 5849 5847 5845 5842 5840 5839 5837 5835 5833 5830 5829 5824 5818 5812 5806 5798 5791 5783 5774 5765 5755 5743 5732 5720 5705 5692 5678 5660 5642 5625 5608 5592 5579 5570 5564 5559 5553 5546 5538 5530
5850 5849 5847 5846 5845 5843 5841 5839 5837 5832 5831 5830 5827 5824 5821 5816 5810 5804 5797 5790 5783 5773 5764 5753 5743 5733 5722 5709 5694 5679 5661 5642 5625 5607 5592 5582 5574 5567 5560 5553 5544 5534 5526 5517
5844 5844 5842 5841 5839 5838 5836 5834 5832 5829 5826 5824 5821 5818 5814 5807 5801 5795 5789 5781 5773 5763 5753 5743 5733 5722 5711 5696 5680 5663 5646 5628 5609 5596 5585 5577 5571 5563 5555 5545 5535 5525 5516 5509
5839 5838 5837 5835 5834 5833 5830 5829 5826 5823 5820 5816 5814 5809 5804 5798 5791 5785 5778 5770 5761 5753 5744 5735 5723 5712 5698 5683 5667 5651 5633 5614 5600 5590 5582 5574 5567 5557 5548 5537 5527 5518 5509 5503
5833 5833 5832 5829 5828 5826 5826 5823 5820 5817 5814 5809 5805 5803 5795 5789 5783 5776 5769 5761 5753 5745 5735 5724 5714 5701 5688 5674 5657 5639 5621 5607 5597 5587 5579 5571 5562 5552 5542 5531 5521 5512 5505 5499
5827 5825 5825 5824 5822 5821 5819 5816 5814 5811 5809 5804 5799 5799 5789 5782 5776 5769 5762 5752 5744 5735 5725 5716 5704 5692 5680 5665 5648 5631 5613 5603 5593 5585 5576 5567 5558 5547 5537 5526 5518 5509 5503 5497
5821 5820 5819 5819 5819 5816 5813 5811 5809 5806 5802 5798 5792 5787 5781 5774 5768 5761 5753 5744 5735 5727 5718 5708 5697 5686 5671 5657 5641 5624 5610 5599 5590 5581 5573 5564 5554 5544 5533 5524 5515 5507 5500 5494
5815 5815 5813 5813 5811 5809 5807 5804 5801 5798 5795 5790 5786 5778 5772 5765 5758 5751 5742 5735 5728 5720 5711 5701 5691 5679 5665 5651 5634 5619 5605 5596 5588 5580 5571 5562 5551 5541 5532 5523 5514 5505 5499 5494
5809 5809 5808 5806 5804 5802 5800 5796 5793 5791 5787 5782 5777 5771 5763 5757 5751 5743 5737 5729 5722 5713 5704 5696 5685 5673 5660 5646 5632 5619 5604 5594 5586 5578 5568 5558 5549 5540 5531 5522 5513 5505 5500 5496
5803 5802 5801 5800 5798 5796 5794 5788 5786 5783 5778 5773 5767 5762 5755 5751 5744 5737 5731 5723 5715 5708 5699 5689 5678 5666 5655 5642 5631 5619 5607 5594 5585 5576 5567 5558 5549 5540 5531 5522 5514 5507 5500 5496
5796 5794 5794 5794 5791 5788 5787 5782 5778 5774 5769 5764 5758 5753 5747 5742 5736 5729 5721 5715 5708 5701 5693 5683 5672 5662 5650 5639 5630 5618 5607 5597 5586 5577 5568 5558 5549 5540 5532 5524 5516 5508 5501 5498
5788 5786 5785 5784 5782 5781 5777 5774 5769 5765 5760 5755 5749 5744 5738 5732 5727 5721 5715 5708 5700 5694 5685 5675 5665 5655 5644 5635 5627 5616 5606 5596 5585 5576 5567 5558 5550 5542 5533 5525 5517 5511 5506 5500
5779 5778 5775 5775 5773 5771 5767 5764 5761 5756 5752 5746 5741 5735 5729 5724 5719 5712 5707 5699 5692 5686 5678 5668 5659 5650 5638 5631 5623 5613 5604 5594 5585 5577 5567 5559 5552 5544 5535 5528 5520 5514 5510 5505
5769 5768 5767 5766 5764 5762 5758 5754 5750 5745 5743 5738 5733 5727 5721 5716 5710 5704 5698 5692 5684 5677 5669 5661 5652 5643 5633 5627 5618 5611 5602 5592 5585 5576 5569 5561 5554 5547 5539 5532 5525 5519 5513 5507
5759 5758 5757 5755 5753 5754 5749 5745 5740 5738 5736 5729 5725 5719 5712 5707 5702 5696 5688 5683 5676 5670 5662 5653 5645 5637 5629 5623 5614 5608 5601 5592 5585 5578 5570 5563 5557 5549 5541 5534 5528 5522 5516 5511
5750 5750 5749 5746 5744 5743 5740 5735 5732 5728 5723 5720 5715 5710 5704 5698 5693 5688 5682 5675 5669 5662 5654 5647 5639 5631 5625 5619 5611 5605 5599 5592 5585 5579 5571 5566 5558 5551 5543 5536 5529 5523 5517 5511
5741 5740 5738 5738 5735 5731 5727 5723 5720 5717 5714 5710 5706 5702 5697 5691 5685 5680 5674 5668 5661 5654 5647 5639 5632 5625 5619 5614 5607 5601 5596 5590 5585 5579 5571 5565 5559 5551 5543 5535 5528 5521 5515 5509
5730 5727 5728 5725 5724 5720 5716 5714 5711 5709 5706 5701 5697 5693 5688 5682 5677 5671 5665 5659 5653 5645 5638 5631 5624 5618 5613 5609 5603 5597 5593 5587 5583 5578 5571 5565 5557 5551 5543 5535 5527 5520 5513 5507
5719 5717 5716 5716 5713 5711 5709 5705 5702 5699 5696 5692 5688 5684 5679 5673 5669 5663 5657 5651 5645 5637 5629 5622 5617 5612 5607 5603 5599 5594 5591 5586 5582 5577 5571 5564 5557 5550 5543 5536 5529 5521 5514 5506
5707 5704 5706 5706 5704 5701 5700 5697 5693 5689 5686 5683 5679 5675 5669 5665 5660 5654 5648 5642 5636 5629 5621 5615 5610 5606 5603 5599 5596 5592 5588 5584 5580 5576 5570 5563 5557 5550 5543 5536 5529 5521 5512 5504
Wind_Speed
21 21 22 23 24 25 27 32 33 31 28 26 22 17 16 17 19 21 24 27 30 34 38 43 47 50 52 55 59 61 65 67 67 69 70 72 74 74 76 76 76 78 79 74
20 21 24 25 25 26 28 33 32 28 26 24 20 17 18 19 22 24 28 32 35 40 45 48 51 53 55 59 61 65 67 70 74 79 81 81 80 80 81 80 78 78 80 85
22 23 24 26 27 28 29 29 31 27 24 20 20 20 21 22 25 29 32 36 40 44 47 50 54 56 57 60 64 68 73 78 83 83 82 81 80 81 79 79 82 82 83 87
21 23 26 27 28 28 28 27 28 28 24 19 20 26 23 24 28 32 36 41 45 48 51 54 56 57 60 64 67 73 77 79 82 83 82 84 87 85 83 80 82 77 71 71
23 25 28 29 28 27 27 26 26 25 23 23 23 29 28 30 32 38 42 45 49 52 55 57 58 61 65 69 73 77 81 82 85 83 85 84 82 79 79 68 54 45 44 50
23 25 26 27 27 27 26 25 24 23 25 27 28 31 32 34 40 43 44 49 51 53 55 57 59 63 66 68 73 76 80 83 80 85 80 77 73 65 51 39 32 36 42 48
24 23 22 23 25 24 23 24 25 26 27 28 29 34 35 39 42 45 47 50 53 55 57 59 61 65 66 70 74 78 81 83 88 85 76 68 56 42 34 36 41 43 48 51
24 23 23 23 22 22 22 23 24 28 30 31 33 37 37 40 43 46 49 52 55 57 58 60 62 64 67 71 77 82 86 88 89 70 61 45 34 34 39 43 46 47 48 39
22 23 23 22 21 22 22 22 24 27 30 32 35 37 38 41 45 48 51 54 55 56 57 59 62 65 69 75 80 83 84 89 72 57 41 31 34 41 45 48 50 47 40 38
20 21 20 21 21 22 23 24 26 28 32 34 36 37 41 45 49 52 52 54 55 55 57 61 63 68 73 77 81 83 86 77 57 42 32 33 37 47 50 54 49 39 37 33
21 20 19 21 21 22 23 25 28 31 32 35 38 41 45 48 50 50 51 52 54 57 61 63 66 71 73 76 79 81 81 58 45 38 36 36 45 48 51 51 40 37 33 32
22 21 22 23 24 26 27 28 30 32 33 35 39 42 44 47 48 48 50 52 54 58 61 63 67 70 72 76 77 77 71 53 41 39 42 45 45 50 51 40 37 35 34 30
21 22 24 24 25 27 28 29 30 33 35 37 41 42 46 48 48 49 52 54 55 56 59 61 64 68 72 72 69 71 62 47 44 44 43 46 46 48 39 38 37 34 32 28
24 24 25 27 27 28 30 31 33 35 38 40 42 46 47 50 48 51 53 50 53 55 57 60 64 66 69 67 63 66 56 43 43 42 42 45 45 37 37 37 36 34 30 24
25 24 26 28 29 30 32 33 35 38 40 43 44 45 48 49 50 51 49 51 55 55 55 57 61 62 64 61 55 59 54 42 41 43 44 39 35 36 37 38 36 34 27 22
28 28 28 30 31 33 34 33 36 39 40 42 44 46 47 49 50 49 52 53 55 54 53 57 59 60 60 55 49 49 49 44 40 38 35 37 37 38 38 37 35 30 27 23
29 31 33 34 33 36 36 37 37 38 40 41 43 45 47 47 49 50 52 51 52 52 53 57 58 60 57 51 45 44 43 43 43 42 39 39 38 38 36 32 32 31 26 21
35 37 38 39 37 38 39 37 38 40 40 42 43 45 47 48 50 49 52 51 50 51 54 57 56 58 53 48 43 43 44 45 44 42 40 38 36 34 31 31 32 27 25 23
38 39 40 40 38 38 38 38 40 40 42 44 45 49 50 51 50 50 50 48 48 50 54 55 55 55 47 44 41 41 42 41 41 40 38 35 33 32 32 32 32 27 26 24
40 39 39 39 39 41 40 41 40 42 44 45 48 50 50 49 48 49 49 50 49 51 54 54 54 52 40 37 38 37 36 37 38 35 33 32 31 31 32 32 31 30 29 29
41 39 38 39 40 41 40 40 43 44 46 47 50 49 47 46 47 48 48 47 48 52 53 53 52 48 36 32 31 33 34 36 31 27 29 31 31 30 30 30 29 28 27 26
36 38 38 39 41 42 40 42 43 45 47 48 49 47 45 44 46 48 47 47 49 51 51 51 49 42 33 29 29 32 34 29 25 26 30 32 31 30 31 31 31 31 30 30
37 38 38 39 39 39 41 43 44 44 46 47 47 45 45 45 45 46 46 48 50 50 51 50 43 39 32 28 29 32 28 23 23 26 28 30 31 33 35 35 35 36 36 36
37 39 38 37 37 40 42 42 42 42 44 45 43 42 43 45 45 46 48 49 49 48 49 45 41 36 29 27 29 27 19 18 22 26 29 30 32 34 35 36 37 38 39 39
37 37 37 38 39 41 40 41 40 43 46 44 42 43 45 45 46 47 48 48 48 49 45 42 36 31 26 25 26 17 15 16 22 26 28 30 32 34 35 36 37 37 38 38
37 38 39 41 41 42 40 43 45 42 41 39 41 45 45 46 48 48 46 47 48 44 40 37 31 27 25 22 22 15 13 17 21 24 28 30 31 32 34 35 36 37 38 40
Wind_Direction
304 303 306 305 306 307 307 307 308 309 307 301 297 283 273 278 283 289 289 293 299 303 303 302 302 302 305 313 314 315 315 315 314 312 308 305 302 298 295 293 290 288 285 283
302 303 302 301 305 306 307 308 309 309 305 298 288 279 282 287 294 298 300 302 305 303 303 303 301 303 310 313 315 316 316 315 315 315 313 310 307 304 301 298 294 292 290 287
297 297 297 299 303 306 307 308 309 306 299 287 278 282 289 295 300 304 305 305 302 303 304 304 306 310 314 316 318 317 319 320 318 316 312 309 306 304 302 296 290 285 280 277
294 296 296 300 303 307 309 309 308 302 292 282 280 286 290 296 307 308 306 306 306 308 309 310 311 314 317 319 320 321 321 319 317 314 312 309 308 308 303 293 289 290 290 289
295 296 298 298 303 307 307 306 303 297 287 285 289 291 299 309 308 306 309 310 312 313 313 313 315 319 320 322 324 323 322 318 316 315 312 313 310 301 298 305 301 296 293 294
293 295 295 297 300 304 301 300 295 289 288 292 296 297 305 308 308 309 311 313 314 313 315 316 318 321 323 324 323 321 320 319 317 316 318 315 308 311 307 303 305 305 305 308
296 299 297 297 302 302 298 298 297 292 292 295 297 298 307 310 309 311 313 315 315 316 315 316 319 321 323 324 322 321 321 322 321 322 320 318 323 320 315 316 318 314 314 312
293 294 295 298 299 297 298 301 299 297 296 299 300 306 310 311 312 315 317 317 316 315 317 319 321 322 324 324 323 325 326 325 325 325 323 333 340 338 336 327 321 321 319 317
291 291 293 299 301 303 304 303 302 299 300 303 305 310 314 317 317 318 319 318 316 317 318 320 321 324 326 326 326 327 329 327 332 328 335 337 334 335 329 333 331 326 324 324
293 297 301 302 304 307 308 308 307 307 308 310 315 316 319 318 318 320 319 319 318 319 319 320 324 327 329 329 329 331 330 335 332 334 337 335 332 333 336 334 330 330 330 328
293 302 304 305 307 306 308 307 306 309 312 315 317 320 320 319 319 320 320 318 318 318 319 323 326 329 331 331 333 334 336 339 335 335 333 332 331 334 335 333 334 337 335 335
296 306 309 309 310 309 310 310 311 313 314 315 314 320 315 318 318 320 318 316 318 320 323 325 328 332 332 334 336 337 339 339 335 334 336 335 336 334 334 335 341 338 337 343
298 304 305 310 309 310 309 310 313 311 311 314 316 315 317 318 320 320 318 318 320 322 323 327 332 332 334 336 340 341 341 342 340 335 336 336 336 335 339 342 342 340 345 348
293 298 301 306 308 310 310 311 311 312 314 316 319 317 317 318 320 319 318 318 318 321 326 329 331 332 336 339 345 348 344 340 343 343 339 338 339 343 346 346 347 347 351 358
293 301 304 305 306 307 308 311 310 312 314 316 316 318 316 319 319 317 315 317 319 323 325 328 329 334 337 342 347 355 355 346 341 338 341 346 348 350 351 351 352 350 354 7
285 294 301 302 303 304 306 306 312 312 313 315 315 316 318 319 317 316 317 319 321 321 324 326 330 335 337 342 343 354 2 5 1 359 356 352 352 353 353 351 352 352 356 3
285 294 300 303 301 303 305 308 310 310 311 312 315 317 319 319 318 317 317 319 319 320 323 326 330 334 336 340 338 347 351 353 354 354 353 353 355 356 355 357 356 359 359 11
286 293 296 298 299 298 301 306 307 309 310 314 316 317 317 318 316 317 318 318 319 320 322 325 329 332 336 337 335 340 344 347 351 353 353 357 1 1 0 358 4 8 11 8
287 290 291 292 293 298 302 305 304 308 311 313 315 317 317 317 314 315 315 317 318 320 321 325 328 330 335 335 336 339 343 349 354 353 358 1 2 8 12 15 13 10 6 0
286 285 286 289 293 297 303 305 309 310 309 313 315 316 316 314 314 316 316 317 319 320 321 324 327 328 333 334 343 342 347 351 353 359 3 7 10 11 12 13 13 12 8 8
279 279 283 290 294 298 301 304 304 306 309 310 309 311 311 311 313 312 314 315 318 318 320 323 325 327 329 331 344 341 344 347 353 358 6 1 1 4 7 8 7 5 3 1
275 281 286 290 293 296 299 301 303 308 307 306 307 308 308 309 310 311 312 314 315 318 320 321 322 325 323 322 330 332 336 345 351 355 357 354 355 359 2 3 2 1 359 357
280 282 284 288 291 295 299 301 302 302 304 304 307 307 306 307 309 310 311 313 315 318 318 319 319 323 318 314 324 332 333 345 346 347 351 350 351 358 360 360 359 359 357 356
279 280 283 290 292 295 296 296 298 303 304 303 307 307 305 307 308 309 311 313 314 316 316 317 317 320 314 315 320 332 333 347 340 341 347 349 354 357 359 360 359 357 355 352
279 280 285 292 292 295 294 294 297 301 304 305 304 302 304 307 309 311 313 313 314 315 316 318 316 317 312 315 319 332 331 341 339 342 347 354 356 358 359 358 356 355 353 351
280 281 285 286 288 288 290 296 299 300 301 301 302 303 304 305 308 311 312 313 315 314 318 320 316 314 310 316 318 317 323 336 340 346 352 354 355 358 358 358 357 358 356 351